Location: Degersen
(52.2871°N, 9.5716°E)
Time: 00:30:52
(UTC+00:00)

YAOGAN 1 - Pass Details

Date: 20 January 2026
Orbit: 605 x 607 km, 97.8° (Epoch: 18 February)

Event Time Altitude Azimuth Distance (km) Brightness Sun altitude
Rises 06:34:51 0° 16° (NNE) 2,877 5.9 -6.8°
Reaches altitude 10° 06:37:04 10° 21° (NNE) 1,968 5.1 -6.5°
Maximum altitude 06:41:17 58° 101° (E) 712 3.3 -5.9°
Drops below altitude 10° 06:45:28 10° 181° (S) 1,951 5.5 -5.3°
Sets 06:47:40 0° 185° (S) 2,849 6.3 -5.0°
